Aérodrome :
LOGIN :

S'inscrire | Disclaimer

   EN    FR    IT 

 










Légende :    VFR   VFR Marginal   IFR   IFR Intensif   IFR Très Intensif
Visi : 
Plafond : 
>= 8 km
>= 3000ft
5 à 8 km
1000 à 3000 ft
1500m à 5 km
500 à 1000 ft
800 à 1500m
200 à 500 ft
< 800m
< 200 ft
Symboles :   Orages  Brouillard  Fortes neiges  Fortes précipitations  Vent > 20 kt
SIGMETs :   Divers  Orages  Givrage  Turbulence  Onde Orograph.  Cendres Volcan.







- Altitude de l'aérodrome : 52 ft
- Code IATA : RNN


EKRN - Bornholm Ronne

DERNIER METAR :
  • 162320Z AUTO 17003KT 1000NDV R11/P1500N R29/P1500N FG FEW002/// OVC019/// 12/12 Q1020

METARs EXPIRÉS :
  • 162250Z AUTO 13003KT 0400NDV R11/P1500N R29/P1500D FG FEW001/// BKN019/// 11/11 Q1020
  • 162220Z AUTO 14003KT 0100NDV R11/0450N R29/0550V0800N FG FEW002/// OVC019/// 10/10 Q1021
  • 162150Z AUTO 14002KT 0150NDV R11/0450VP1500U R29/0800VP1500D BCFG SCT021/// 11/10 Q1021
  • 162120Z AUTO 08004KT 0350NDV R11/0600VP1500D R29/P1500N FG NCD 11/11 Q1021
  • 162050Z AUTO 35001KT 0750NDV R11/0900VP1500D R29/P1500VP1500D FG FEW200/// 12/11 Q1021

Prévision TAF périmée.
Pas de NOTAMs connus pour ce terrain.



MET'MAP, la Météo Aéronautique d'un coup d'oeil ! - Copyright ORBIFLY Décembre 2007 - Disclaimer

ORBIFLY MET'MAP TEAM :

Programmation & Développement : Alexandra Zaïnal
Conception & Développement : Baudouin d'Aumeries
Co-Programmation & Développement : Marc-Olivier Méhu
Soutien technique & logistique : Manuel Goepfert

Contact : metmap@orbifly.com




SOURCES & CREDITS :

   NOAA